This is the latest recevied weather packets stored in our database for station/object K5WNG. If no packets are shown the sender has not sent any weather packets the latest 10 day(s).
| Time | Temp. | Humidity | Pressure | Rain* | Wind** | Luminosity | Snow |
|---|---|---|---|---|---|---|---|
| 1778175322 | 17.22° C | 76% | 1017.6 hPa | 0 mm | - | 418 W/m² | - |
| 1778175022 | 16.67° C | 78% | 1017.5 hPa | 0 mm | - | 388 W/m² | - |
| 1778174722 | 16.67° C | 78% | 1017.6 hPa | 0 mm | - | 285 W/m² | - |
| 1778174422 | 16.11° C | 79% | 1017.3 hPa | 0 mm | - | 293 W/m² | - |
| 1778174122 | 16.11° C | 79% | 1017.1 hPa | 0 mm | - | 303 W/m² | - |
| 1778173825 | 15.56° C | 80% | 1017.1 hPa | 0 mm | - | 280 W/m² | - |
| 1778173526 | 15.56° C | 81% | 1017 hPa | 0 mm | - | 290 W/m² | - |
| 1778173225 | 15° C | 81% | 1017.1 hPa | 0 mm | - | 239 W/m² | - |
| 1778172922 | 15° C | 81% | 1018 hPa | 0 mm | - | 206 W/m² | - |
| 1778172623 | 15° C | 82% | 1017.4 hPa | 0 mm | - | 181 W/m² | - |
| 1778172327 | 15° C | 83% | 1017.7 hPa | 0 mm | - | 188 W/m² | - |
| 1778172023 | 15° C | 83% | 1017.4 hPa | 0 mm | - | 222 W/m² | - |
| 1778171726 | 15° C | 83% | 1017.6 hPa | 0 mm | - | 202 W/m² | - |
| 1778171423 | 15° C | 83% | 1018.2 hPa | 0 mm | - | 166 W/m² | - |
| 1778171123 | 15° C | 82% | 1018.3 hPa | 0 mm | - | 129 W/m² | - |
| 1778170826 | 15° C | 82% | 1018.6 hPa | 0 mm | - | 103 W/m² | - |
| 1778170526 | 14.44° C | 83% | 1019.1 hPa | 0 mm | - | 89 W/m² | - |
| 1778170226 | 14.44° C | 83% | 1018.8 hPa | 0 mm | - | 93 W/m² | - |
| 1778169927 | 14.44° C | 83% | 1019 hPa | 0 mm | - | 76 W/m² | - |
| 1778169621 | 14.44° C | 83% | 1018.6 hPa | 0 mm | - | 81 W/m² | - |
| 1778169320 | 15° C | 82% | 1018.5 hPa | 0 mm | - | 99 W/m² | - |
| 1778169023 | 15° C | 82% | 1018.2 hPa | 0 mm | - | 133 W/m² | - |
| 1778168723 | 15° C | 83% | 1018.2 hPa | 0 mm | - | 143 W/m² | - |
| 1778168424 | 15° C | 83% | 1018.6 hPa | 0 mm | - | 127 W/m² | - |
| 1778168126 | 15° C | 83% | 1018.6 hPa | 0 mm | - | 122 W/m² | - |
* Rain latest hour (hover to see other rain measurements)
** Current wind speed in m/s (hover to see current wind gust speed)